Погода в Половинном

Россия / Новосибирская область     53°45′17″N   79°14′47″E
темп.,
°C
ветер,
м/с
пор.,
м/с
влажн.,
%
обл.,
%
осадки,
мм/ч
давл.,
гПа
погр.,
м
28 ноября, вс
вс2801:00−7юз91791100 0.1 1032587
04:00−7юз81692100 0.1 1032528
07:00−7юз71493100 0.1 1033450
10:00−8юз61293100 0.0 1034397
13:00−7юз6129478 0.0 1035359
16:00−8юз5109464 0.0 1036279
19:00−11юз499665 0.0 1037146
22:00−12юз489654 0.0 1038115
29 ноября, пн
пн2901:00−14ююз369673 0.0 103879
04:00−13ююз379499 0.0 103793
07:00−14ююз369270 0.0 103780
10:00−15ююз359066 0.0 103664
13:00−10ююз3784100 0.0 1035137
16:00−10ю36849 0.0 103394
19:00−14ю3686100 0.0 103356
22:00−11ю4889100 0.0 1032110
30 ноября, вт
вт3001:00−11ю3989100 0.0 1031115
04:00−11ююз3787100 0.0 103099
07:00−12ю3788100 0.0 102978
10:00−10ю4887100 0.0 1029106
13:00−8ююз388578 0.0 1028138
16:00−8ю368799 0.0 102894
19:00−13ю359112 0.0 102850
22:00−15ю33935 0.0 102844
1 декабря, ср
ср101:00−15ю359211 0.0 102850
04:00−16ююз35865 0.0 102855
07:00−16ю36875 0.0 102855
10:00−13ю410845 0.0 1027114
13:00−9ююз410825 0.0 1027173
16:00−8ю49845 0.0 1026131
19:00−10ю49865 0.0 1026104
22:00−10ююз37875 0.0 102594
2 декабря, чт
чт201:00−12ю48895 0.0 102582
04:00−10ю4108596 0.0 1023117
07:00−11ю498793 0.0 1023101
10:00−10ю498814 0.0 1022110
13:00−6ю511835 0.0 1020185
16:00−4ю51380100 0.0 1019197
19:00−4ю61481100 0.0 1017209
22:00−2ю71778100 0.0 1015272